Sault Ste Marie, MI

5:20 PM EST on January 23, 2018 (GMT -0500)
Sault Ste Marie Municipal / Sanderson Field

Weather History for KANJ - August, 2011

Change the Weather History Date:

Friday, August 26, 2011

  Actual Average Record
Temperature  
Mean Temperature 63 °F 63 °F  
Max Temperature 76 °F 73 °F 92 °F (1948)
Min Temperature 49 °F 53 °F 38 °F (1917)
Degree Days  
Heating Degree Days 2 3  
Month to date heating degree days 19 58  
Since 1 June heating degree days 180 307  
Since 1 July heating degree days 32 127  
Cooling Degree Days 0 1  
Month to date cooling degree days 71 62  
Year to date cooling degree days 221 175  
Since 1 June cooling degree days 213 170  
Growing Degree Days 12 (Base 50)    
Moisture  
Dew Point 54 °F    
Average Humidity 77    
Maximum Humidity 100    
Minimum Humidity 54    
Precipitation  
Precipitation 0.06 in 0.10 in 1.26 in (2013)
Month to date precipitation 4.37 2.63  
Year to date precipitation 23.34 18.63  
Sea Level Pressure  
Sea Level Pressure 29.97 in    
Wind  
Wind Speed 4 mph (SSE)    
Max Wind Speed 16 mph    
Max Gust Speed 22 mph    
Visibility 7 miles    
Events Fog , Rain , Thunderstorm    
T = Trace of Precipitation, MM = Missing Value Source: NWS Daily Summary

Daily Weather History Graph

Daily Weather History Graph

Search for Another Location

Airport or City:

Trip Planner

Search our weather history database for the weather conditions in past years. The results will help you decide how hot, cold, wet, or windy it might be!

Date:

Astronomy

Aug. 26, 2011 Rise Set
Actual Time 6:49 AM EDT 8:28 PM EDT
Civil Twilight 6:17 AM EDT 8:59 PM EDT
Nautical Twilight 5:39 AM EDT 9:38 PM EDT
Astronomical Twilight 4:56 AM EDT 10:20 PM EDT
Moon 3:45 AM EDT (8/26) 6:49 PM EDT (8/26)
Length of Visible Light 14h 42m
Length of Day
13h 38m
Waning Crescent, 8% of the Moon is Illuminated
Aug 26
Waning Crescent
Aug 28
New
Sep 4
First Quarter
Sep 12
Full
Sep 20
Last Quarter

Hourly Weather History & Observations

Time (EDT) Temp. Dew Point Humidity Pressure Visibility Wind Dir Wind Speed Gust Speed Precip Events Conditions
12:55 AM 55.0 °F 51.1 °F 86% 30.01 in 10.0 mi Calm Calm - N/A   Clear
1:55 AM 53.1 °F 50.0 °F 89% 30.01 in 10.0 mi Calm Calm - N/A   Clear
2:55 AM 52.0 °F 48.0 °F 86% 30.01 in 10.0 mi Calm Calm - N/A   Clear
3:53 AM 53.6 °F 50.0 °F 88% 30.01 in 9.0 mi Calm Calm - N/A   Scattered Clouds
3:55 AM 53.1 °F 50.0 °F 89% 30.01 in 5.0 mi Calm Calm - N/A   Scattered Clouds
3:59 AM 53.6 °F 50.0 °F 88% 30.01 in 1.8 mi Calm Calm - N/A   Mostly Cloudy
4:08 AM 51.8 °F 48.2 °F 88% 30.01 in 0.8 mi Calm Calm - N/A   Mist
4:53 AM 51.8 °F 48.2 °F 88% 30.02 in 2.0 mi Calm Calm - N/A   Mostly Cloudy
4:55 AM 51.1 °F 48.9 °F 92% 30.02 in 3.0 mi Calm Calm - N/A   Mostly Cloudy
5:05 AM 50.0 °F 48.2 °F 94% 30.03 in 6.0 mi Calm Calm - N/A   Scattered Clouds
5:55 AM 48.9 °F 46.9 °F 93% 30.03 in 10.0 mi Calm Calm - N/A   Clear
6:55 AM 48.9 °F 46.0 °F 90% 30.03 in 10.0 mi Calm Calm - N/A   Clear
7:19 AM 51.8 °F 48.2 °F 88% 30.03 in 6.0 mi NE 3.5 mph - N/A   Scattered Clouds
7:25 AM 51.8 °F 48.2 °F 88% 30.04 in 1.0 mi ENE 3.5 mph - N/A   Mist
7:32 AM 51.8 °F 48.2 °F 88% 30.04 in 0.2 mi Calm Calm - N/A Fog Fog
7:55 AM 52.0 °F 50.0 °F 93% 30.04 in 0.2 mi ENE 3.5 mph - N/A Fog Fog
8:55 AM 54.0 °F 53.1 °F 97% 30.03 in 0.2 mi Calm Calm - N/A Fog Fog
9:18 AM 55.4 °F 53.6 °F 94% 30.03 in 2.0 mi Calm Calm - N/A   Overcast
9:26 AM 55.4 °F 55.4 °F 100% 30.03 in 7.0 mi SE 3.5 mph - N/A   Mostly Cloudy
9:35 AM 55.4 °F 53.6 °F 94% 30.03 in 10.0 mi Calm Calm - N/A   Scattered Clouds
9:55 AM 60.1 °F 55.0 °F 83% 30.02 in 10.0 mi Calm Calm - N/A   Clear
10:55 AM 66.0 °F 57.0 °F 73% 30.01 in 10.0 mi Variable 4.6 mph - N/A   Clear
11:55 AM 71.1 °F 57.0 °F 61% 29.98 in 10.0 mi South 9.2 mph - N/A   Clear
12:55 PM 73.9 °F 60.1 °F 62% 29.96 in 10.0 mi SSW 8.1 mph - N/A   Clear
1:55 PM 75.0 °F 57.9 °F 55% 29.92 in 10.0 mi South 12.7 mph - N/A   Clear
2:55 PM 75.9 °F 60.1 °F 58% 29.89 in 10.0 mi SW 12.7 mph - N/A   Clear
3:55 PM 75.0 °F 60.1 °F 60% 29.89 in 10.0 mi South 12.7 mph 18.4 mph N/A   Clear
4:55 PM 73.0 °F 57.9 °F 59% 29.90 in 10.0 mi SW 11.5 mph 17.3 mph N/A   Scattered Clouds
5:55 PM 72.0 °F 59.0 °F 64% 29.91 in 10.0 mi SW 9.2 mph - N/A   Partly Cloudy
6:55 PM 72.0 °F 57.9 °F 61% 29.88 in 10.0 mi South 8.1 mph - N/A   Partly Cloudy
7:55 PM 69.1 °F 55.9 °F 63% 29.87 in 10.0 mi South 4.6 mph - N/A   Mostly Cloudy
8:55 PM 66.0 °F 57.9 °F 75% 29.87 in 10.0 mi ESE 3.5 mph - N/A   Mostly Cloudy
9:29 PM 64.4 °F 59.0 °F 83% 29.87 in 10.0 mi Calm Calm - 0.02 in Thunderstorm Thunderstorm
9:44 PM 64.4 °F 59.0 °F 83% 29.87 in 10.0 mi SE 4.6 mph - 0.02 in Rain Light Rain
9:55 PM 64.9 °F 57.9 °F 78% 29.87 in 10.0 mi SSE 3.5 mph - 0.02 in   Overcast
10:55 PM 64.0 °F 59.0 °F 84% 29.84 in 10.0 mi Calm Calm - N/A   Overcast
11:55 PM 64.0 °F 59.0 °F 84% 29.85 in 8.0 mi Calm Calm - 0.04 in Rain Light Rain